Simultaneous Nadir Overpasses (SNOs) Predictions

Prediction of SNOs between NOAA-19 and TERRA Satellite Orbit:

Table of predicted SNOs for the next 14.0 days since TLE Epoch: 6/14/2024
Index Date (NOAA-19) Time (NOAA-19) Lat,Lon (NOAA-19) SZA (NOAA-19 ) Date (TERRA) Time (TERRA) Lat,Lon (TERRA) SZA (TERRA ) Distance(km) Time Diff (sec)
1 06/16/2024 17:14:18 -78.71, 113.00 124.49 06/16/2024 17:14:17 -78.72, 113.00 124.49 0.37 1
2 06/18/2024 20:13:20 -78.54, 67.17 124.75 06/18/2024 20:14:06 -78.53, 67.07 124.76 2.90 46
3 06/18/2024 21:04:11 78.77,-124.02 55.54 06/18/2024 21:03:20 78.77,-124.02 55.53 0.27 51
4 06/21/2024 00:03:12 78.65,-169.54 55.37 06/21/2024 00:03:07 78.65,-169.63 55.36 1.95 5
5 06/23/2024 03:02:16 78.41, 144.22 55.10 06/23/2024 03:02:56 78.42, 144.26 55.11 1.09 40
6 06/23/2024 03:53:09 -78.65, -47.00 124.62 06/23/2024 03:52:13 -78.66, -46.88 124.61 2.85 56
7 06/25/2024 06:52:10 -78.49, -92.69 124.76 06/25/2024 06:52:00 -78.50, -92.64 124.76 1.43 10
8 06/27/2024 09:51:11 -78.33,-138.40 124.88 06/27/2024 09:51:47 -78.32,-138.47 124.89 1.65 36



Historial Predications of SNOs between NOAA-19 and TERRA
